Probability
0 0 0 1 0 0 0 0 0 0 0 0 0 0 0 0 0 0 0 0 0 0 0 0 0 0 0 0 0 0 0 0 0 0 0 0 0 0 0 0 0 0 0 1 1 1 0 0 0
0 0 0 1 0 0 0 0 0 0 0 0 0 0 0 0 0 0 0 0 0 0 0 0 0 0 0 0 0 0 0 0 0 0 0 0 0 0 0 0 0 0 0 1 2 1 0 0 0
0 0 0 0 0 0 0 0 0 0 0 0 0 0 0 0 0 0 0 0 0 0 0 0 0 0 0 0 0 0 0 0 0 0 0 0 0 0 0 0 0 0 0 1 1 1 0 0 0
0 0 0 0 0 0 0 0 0 0 0 0 0 0 0 0 0 0 0 0 0 0 0 0 0 0 0 0 0 0 0 0 0 0 0 0 0 0 0 0 0 0 0 0 0 0 0 0 0
0 0 0 0 0 0 0 0 0 0 0 0 0 0 0 0 0 0 0 0 0 0 0 0 0 0 0 0 0 0 0 0 0 0 0 0 0 0 0 0 0 0 0 0 0 0 0 0 0
0 0 0 0 0 0 0 0 0 0 0 0 0 0 0 0 0 0 0 0 0 0 0 0 0 0 0 0 0 0 0 0 0 0 0 0 0 0 0 0 0 0 0 0 0 0 0 0 0
0 0 0 0 0 0 0 0 0 0 0 0 0 0 0 0 0 1 1 0 0 0 0 0 0 0 0 0 0 0 0 0 0 0 0 0 0 0 0 0 0 0 0 0 0 0 0 0 0
0 0 0 0 0 0 0 0 0 0 0 0 0 0 0 0 0 1 2 1 0 0 0 0 0 0 0 0 0 0 0 0 0 0 0 0 0 0 0 0 0 0 0 0 0 0 0 0 0
0 0 0 0 0 0 0 0 0 0 0 0 0 0 0 1 1 1 1 1 0 0 0 0 0 0 0 0 0 0 0 0 0 0 0 0 0 0 0 0 0 0 0 0 0 0 0 0 0
0 0 0 0 0 0 0 0 0 0 0 0 0 0 1 2 2 1 0 0 0 0 0 0 0 0 0 0 0 0 0 0 0 0 0 0 0 0 0 0 0 0 0 0 0 0 0 0 0
0 0 0 0 0 0 0 0 0 0 0 0 0 0 1 2 2 1 0 0 0 0 0 0 0 0 0 0 0 0 0 0 0 0 0 0 0 0 0 0 0 0 0 0 0 0 0 0 0
0 0 0 0 0 0 0 0 0 0 0 1 1 1 1 2 2 1 0 0 0 0 0 0 0 0 0 0 0 0 0 0 0 0 0 0 0 0 0 0 0 0 0 0 0 0 0 0 0
0 0 0 0 0 0 0 0 0 0 1 2 2 1 1 1 1 1 0 0 0 0 0 0 0 0 0 0 0 0 0 0 0 0 0 0 0 0 0 0 0 0 0 0 0 0 0 0 0
0 0 0 0 0 0 0 0 0 0 1 3 2 1 2 2 2 1 0 0 0 0 0 0 0 0 0 0 0 0 0 0 0 0 0 0 0 0 0 0 0 0 0 0 0 0 0 0 0
0 0 0 0 0 0 0 0 0 1 2 3 3 2 2 2 1 1 0 0 0 0 0 0 0 0 0 0 0 0 0 0 0 0 0 0 0 0 0 0 0 0 0 0 0 0 0 0 0
0 0 0 0 0 0 0 0 0 1 2 3 3 2 1 1 0 0 0 0 0 0 0 0 0 0 0 0 0 0 0 0 0 0 0 0 0 0 0 0 0 0 0 0 0 0 0 0 0
0 0 0 0 0 0 0 0 0 1 2 3 3 2 1 0 0 0 0 0 0 0 0 0 0 0 0 0 0 0 0 0 0 0 0 0 0 0 0 0 0 0 0 0 0 0 0 0 0
0 0 0 0 0 0 0 0 0 0 1 2 3 2 1 0 0 0 0 0 0 0 0 0 0 0 0 0 0 0 0 0 0 0 0 0 0 0 0 0 0 0 0 0 0 0 0 0 0
0 0 0 0 0 0 0 0 0 0 0 1 3 2 1 0 0 0 0 0 0 0 0 0 0 0 0 0 0 0 0 0 0 0 0 0 0 0 0 0 0 0 0 0 0 0 0 0 0
0 0 0 0 0 0 0 0 0 0 0 1 2 2 1 0 0 0 0 0 0 0 0 0 0 0 0 0 0 0 0 0 0 0 0 0 0 0 0 0 0 0 0 0 0 0 0 0 0
0 0 0 0 0 0 0 0 0 0 0 0 1 2 2 1 0 0 0 0 0 0 0 0 0 0 0 0 0 0 0 0 0 0 0 0 0 0 0 0 0 0 0 0 0 0 0 0 0
0 0 0 0 0 0 0 0 0 0 0 0 0 1 3 3 1 0 0 0 0 0 0 0 0 0 0 0 0 0 0 0 0 0 0 0 0 0 0 0 0 0 0 0 0 0 0 0 0
0 0 0 0 0 0 0 0 0 0 0 0 0 1 3 4 3 1 0 0 0 0 0 0 0 0 0 0 0 0 0 0 0 0 0 0 0 0 0 0 0 0 0 0 0 0 0 0 0
0 0 0 0 0 0 0 0 0 0 0 0 0 0 2 3 3 1 0 0 0 0 0 0 0 0 0 0 0 0 0 0 0 0 0 0 0 0 0 0 0 0 0 0 0 0 0 0 0
0 0 0 0 0 0 0 0 0 0 0 0 0 0 0 2 2 1 0 0 0 0 0 0 0 0 0 0 0 0 0 0 0 0 0 0 0 0 0 0 0 0 0 0 0 0 0 0 0
0 0 0 0 0 0 0 0 0 0 0 0 0 0 0 1 2 1 0 0 0 0 0 0 0 0 0 0 0 0 0 0 0 0 0 0 0 0 0 0 0 0 0 0 0 0 0 0 0
0 0 0 0 0 0 0 0 0 0 0 0 0 0 0 1 1 1 0 0 0 0 0 0 0 0 0 0 0 0 0 0 0 0 0 0 0 0 0 0 0 0 0 0 0 0 0 0 0
0 0 0 0 0 0 0 0 0 0 0 0 0 0 0 0 0 0 0 0 0 0 0 0 0 0 0 0 0 0 0 0 0 0 0 0 0 0 0 0 0 0 0 0 0 0 0 0 0
0 0 0 0 0 0 0 0 0 0 0 0 0 0 0 0 0 0 0 0 0 0 0 0 0 0 0 0 0 0 0 0 0 0 0 0 0 0 0 0 0 0 0 0 0 0 0 0 0
0 0 0 0 0 0 0 0 0 0 0 0 0 0 0 0 0 0 0 0 0 0 0 0 0 0 0 0 0 0 0 0 0 0 0 0 0 0 0 0 0 0 0 0 0 0 0 0 0
Wind_Speed
12 6 1 3 5 4 0 1 1 2 3 3 6 8 8 6 4 5 2 4 6 5 3 5 6 9 9 10 10 10 10 10 11 11 11 12 12 11 11 11 11 11 11 11 10 10 10 10 10
5 3 3 4 4 2 2 1 2 1 4 4 7 7 8 6 4 5 3 3 5 5 4 5 7 9 9 10 10 10 10 9 10 10 11 11 11 11 11 11 10 10 10 10 10 10 9 9 8
4 1 4 4 3 4 3 0 3 3 4 4 6 6 5 4 3 2 2 4 6 5 5 5 8 9 9 9 9 9 10 9 9 10 10 10 10 10 10 10 10 10 9 9 9 9 9 9 8
3 4 4 4 2 1 2 1 1 4 5 6 6 7 4 4 2 2 4 6 7 6 5 5 8 9 9 9 10 10 9 9 9 9 9 9 9 9 9 9 9 9 9 9 9 8 8 8 8
4 4 4 2 1 0 0 0 2 3 3 3 5 7 4 4 4 5 5 6 7 6 5 5 8 9 9 9 10 10 10 10 9 9 9 9 9 9 9 8 8 9 9 9 8 8 8 7 8
4 4 3 2 2 0 1 2 2 5 3 3 5 6 4 2 4 3 4 5 6 6 5 5 9 9 9 9 9 9 10 10 9 9 9 9 9 9 9 8 8 8 8 8 8 8 7 7 7
4 4 3 3 2 0 1 2 3 3 4 3 2 6 4 1 2 3 5 6 6 6 6 5 5 6 8 9 9 9 9 9 9 9 9 9 8 8 8 9 8 8 8 8 8 8 8 7 7
3 4 3 2 2 1 2 2 3 4 3 3 4 6 4 2 2 5 6 7 6 6 6 5 5 5 4 5 8 8 9 9 9 9 8 8 8 7 7 7 7 7 7 7 8 8 8 8 8
3 5 2 2 3 1 1 3 3 4 5 4 4 3 3 6 6 7 6 6 6 6 5 5 5 5 4 4 6 6 7 9 8 7 8 6 4 3 3 5 7 7 7 7 7 7 7 7 7
4 3 2 0 2 2 2 3 2 4 5 4 5 5 6 7 7 7 6 6 5 4 4 5 5 5 4 4 4 4 4 5 5 5 5 4 3 3 4 5 6 6 7 6 7 7 6 5 3
4 3 2 2 2 3 3 3 3 5 2 2 4 6 6 6 6 6 5 4 4 3 4 4 4 4 4 3 3 3 3 3 4 5 5 4 3 3 3 2 3 3 4 3 5 5 4 3 3
5 4 3 2 3 3 3 2 4 3 1 3 6 8 7 7 6 5 5 4 3 4 4 3 3 4 4 4 3 3 2 2 3 3 4 3 3 3 3 3 3 3 2 3 3 2 3 3 3
5 3 4 5 6 5 5 4 3 2 1 4 7 8 7 6 5 4 4 4 4 4 3 3 3 3 3 3 3 3 3 2 2 3 3 4 3 3 3 2 3 3 3 3 2 3 3 3 3
3 4 3 4 4 3 4 2 3 0 2 5 6 6 5 5 4 4 4 4 3 3 3 2 3 3 3 3 3 2 2 2 2 3 3 4 3 3 2 3 3 3 3 2 2 2 2 2 2
4 5 4 3 2 1 3 4 1 1 3 5 5 4 4 4 3 3 3 4 3 3 3 2 3 3 3 3 3 2 2 2 3 3 3 4 4 3 2 3 3 3 3 3 2 2 2 2 3
2 3 2 3 2 1 2 1 2 2 4 4 3 3 3 3 3 3 3 2 2 3 3 2 3 3 3 3 2 2 2 2 2 2 3 4 4 4 3 2 3 3 2 3 2 2 2 2 2
3 2 0 2 2 1 2 2 2 2 4 3 3 3 3 2 2 1 2 3 2 2 2 2 2 3 2 2 2 3 2 3 3 3 3 4 5 5 3 2 3 3 2 3 3 3 2 2 3
2 2 1 2 2 2 1 2 3 1 3 3 3 3 3 3 3 2 2 3 3 2 2 2 2 2 2 2 2 3 3 3 3 3 3 4 4 4 4 3 4 4 3 3 3 4 3 2 2
3 3 1 2 1 1 1 3 4 3 2 3 3 3 3 3 2 2 2 3 3 3 2 2 3 2 2 1 1 2 2 2 2 3 3 4 4 4 4 3 3 3 3 3 3 3 3 3 3
3 3 1 1 2 0 0 4 4 3 4 5 5 5 4 3 1 1 1 2 2 2 2 2 2 2 2 1 1 1 1 2 2 2 3 4 4 4 4 4 3 3 3 4 4 3 3 2 3
1 2 2 1 2 1 1 3 3 3 2 2 3 3 4 5 4 3 2 2 1 2 2 1 1 2 2 2 2 3 2 2 2 2 3 4 4 4 4 4 3 3 3 3 4 3 3 2 2
0 1 2 1 1 1 1 2 5 3 3 3 4 3 4 4 4 4 3 2 2 2 2 2 2 2 2 2 3 3 2 1 1 1 2 3 4 4 4 4 4 3 3 3 4 4 2 2 2
2 1 1 2 2 0 1 1 6 1 4 5 5 4 4 4 5 4 4 3 2 1 2 2 2 2 2 2 3 3 2 1 1 1 2 3 3 4 4 4 3 3 3 3 3 4 3 2 2
1 1 2 2 2 1 3 3 6 4 6 4 4 5 4 4 4 4 3 2 1 1 1 2 2 2 2 2 3 3 2 1 2 2 2 2 2 2 3 3 3 3 3 3 3 3 3 3 2
2 4 3 4 3 4 1 2 8 5 4 5 5 5 4 4 4 4 3 2 2 1 1 1 2 2 2 2 2 2 2 2 2 1 1 1 1 2 3 3 2 2 3 2 2 2 3 3 3
0 3 5 3 3 4 2 4 7 3 3 2 3 3 4 4 4 4 4 3 3 2 2 2 2 2 2 2 2 2 2 1 1 1 0 0 1 1 2 2 2 3 2 3 2 2 2 2 3
2 1 2 4 1 1 4 5 7 1 1 0 2 2 4 4 4 3 3 3 3 2 2 3 2 2 1 2 2 2 2 1 1 1 1 0 1 1 2 2 2 2 3 3 2 2 3 2 3
1 3 3 3 3 2 4 4 5 4 4 3 3 3 4 3 3 3 2 2 2 2 2 2 2 2 2 2 2 1 1 1 1 1 1 1 1 1 1 2 2 2 2 3 2 2 2 3 3
1 1 2 2 3 3 2 7 5 5 4 5 5 4 4 4 4 3 2 2 1 1 2 2 2 2 1 1 2 2 1 1 1 1 0 0 1 1 1 1 1 2 2 2 2 2 2 2 3
1 1 3 3 2 2 2 8 3 3 3 3 4 4 4 4 3 3 2 2 2 1 1 2 2 2 1 1 2 1 1 1 1 1 0 1 0 1 1 1 1 1 2 2 1 2 2 2 3
Wind_Direction
327 323 27 60 59 56 209 255 148 76 66 64 68 79 89 78 93 116 89 89 98 104 97 91 82 91 93 94 92 89 86 84 82 83 84 82 78 74 71 69 68 68 68 69 68 66 64 62 58
318 340 50 63 93 122 264 280 108 93 137 113 65 62 70 66 54 84 65 82 100 104 100 94 84 89 92 93 90 86 84 84 83 82 82 80 77 73 70 67 65 64 64 65 64 62 61 59 57
317 51 74 80 120 170 184 159 114 84 72 84 76 53 69 68 53 64 70 104 95 91 86 87 82 87 90 91 90 87 85 82 82 83 81 79 76 72 68 65 64 61 61 63 62 59 56 54 51
38 46 56 80 164 207 162 188 126 108 54 50 97 79 68 41 23 76 107 100 94 82 77 81 77 84 85 84 84 84 82 81 80 80 79 77 73 70 67 64 62 59 57 57 57 59 54 50 47
61 75 72 83 202 197 95 348 86 85 76 49 89 97 75 18 57 95 105 97 97 83 72 78 72 72 73 78 79 78 76 76 77 75 74 74 71 68 65 62 62 59 55 53 51 54 52 47 42
59 74 103 172 206 112 6 3 75 70 78 60 75 101 96 49 66 82 95 95 94 88 75 72 70 68 65 66 70 73 73 73 72 71 70 71 71 67 63 58 58 55 53 51 48 45 43 40 38
101 104 140 159 174 182 352 16 68 86 70 48 82 104 110 56 62 85 91 92 88 82 75 63 60 62 63 63 65 68 67 68 69 67 65 63 63 64 61 55 54 53 51 49 45 41 35 31 32
116 106 112 136 156 212 337 48 56 66 76 38 57 117 146 186 110 95 92 87 82 74 69 61 55 55 56 59 62 62 62 59 57 56 56 55 55 57 56 49 48 50 49 47 44 40 35 31 30
79 85 141 169 164 187 20 66 46 53 77 52 47 85 135 136 114 99 93 82 73 68 60 56 52 49 48 56 59 57 60 57 52 46 46 47 40 40 46 41 43 43 42 41 39 35 31 28 25
71 120 164 149 151 131 60 66 98 80 63 57 49 60 104 116 111 108 106 102 86 72 63 58 55 48 47 53 53 47 52 51 49 40 34 34 33 29 36 36 37 35 32 30 30 27 24 24 17
67 118 113 35 43 86 74 45 33 115 92 129 139 135 128 118 111 110 105 109 110 99 76 64 62 59 53 51 58 49 46 45 44 40 34 33 34 28 28 27 25 21 22 14 16 17 11 11 16
76 50 59 41 31 48 53 56 42 57 160 155 148 144 134 126 122 123 120 114 116 106 85 71 63 62 58 56 60 61 55 49 44 37 39 41 35 27 22 22 9 12 10 12 15 13 11 13 17
74 70 49 59 60 65 68 63 79 49 74 105 123 128 132 132 130 127 125 116 119 114 98 83 70 65 64 62 59 60 55 51 42 40 40 47 46 30 22 20 15 11 8 8 6 14 17 12 10
100 93 70 47 48 51 81 52 71 20 107 105 119 133 141 137 137 134 132 127 126 123 115 103 88 78 75 67 65 66 53 45 44 40 35 41 47 37 28 21 16 8 5 357 350 4 11 3 12
100 83 44 19 28 84 75 32 9 223 129 118 131 147 144 141 133 138 150 148 147 144 132 123 114 90 89 86 78 74 61 55 49 38 33 39 39 32 27 26 18 1 356 357 356 7 9 12 14
72 69 48 342 12 332 94 235 268 192 142 142 157 166 156 150 145 141 139 130 129 134 128 120 104 97 92 90 83 77 72 66 54 42 35 36 35 30 32 30 13 356 4 9 7 8 9 11 4
51 89 127 317 352 6 111 214 250 195 161 169 181 177 169 158 142 132 138 134 128 130 126 114 103 108 100 89 87 85 77 64 54 47 40 37 36 30 30 27 11 4 14 17 10 9 6 5 357
162 139 156 253 323 38 112 234 266 225 175 187 194 194 181 176 188 167 141 133 118 111 109 105 91 84 93 90 74 69 65 54 48 46 40 39 34 31 29 29 16 13 17 16 13 10 6 359 340
138 133 163 250 298 49 187 247 264 238 211 210 203 208 199 200 193 150 128 131 112 92 89 85 79 60 67 77 85 85 62 48 36 41 41 39 35 32 37 28 19 19 21 9 11 9 8 2 351
113 128 203 292 306 81 251 280 266 229 206 204 203 207 205 196 174 158 132 115 127 121 104 101 98 77 65 55 57 77 98 78 51 32 35 35 33 26 30 29 22 17 22 15 12 19 11 1 4
56 172 194 232 339 15 54 303 273 260 221 206 203 198 197 191 192 192 169 147 140 152 148 136 130 108 82 71 72 69 62 58 43 30 25 25 27 27 25 26 27 21 26 18 5 15 23 356 354
240 203 176 169 98 287 184 268 267 244 248 234 223 215 208 196 190 188 179 178 189 203 176 154 131 105 94 101 103 106 98 88 36 32 32 23 25 23 23 26 28 25 26 23 9 15 11 7 348
190 214 181 181 154 354 323 204 279 231 241 243 231 225 220 196 186 185 189 191 192 193 180 166 143 119 106 109 117 116 103 97 70 49 36 25 21 21 22 26 29 27 28 27 19 13 15 16 358
172 62 55 57 76 272 232 187 269 232 224 235 224 221 215 193 186 185 185 168 159 160 151 150 140 130 122 120 122 129 129 114 88 54 30 16 7 9 18 23 28 27 26 24 19 18 16 11 6
65 88 42 9 3 252 240 202 251 245 227 213 209 215 208 188 180 180 175 176 177 178 163 143 154 153 136 126 126 133 139 142 137 128 66 16 354 354 360 11 18 20 20 16 14 17 12 5 2
168 130 147 187 229 280 315 238 255 255 258 226 186 184 183 191 186 189 186 185 189 196 185 177 170 166 145 138 132 122 132 140 143 135 110 35 335 342 357 14 15 12 13 7 8 10 4 4 359
118 128 149 130 74 317 276 282 294 261 289 219 159 168 195 197 193 198 193 188 193 199 202 186 174 155 136 129 120 102 96 98 101 72 66 23 356 6 14 23 16 10 13 7 7 22 10 6 4
87 140 103 118 136 272 294 271 252 249 245 242 216 217 212 193 195 193 194 192 198 201 187 155 150 149 145 132 126 115 104 102 98 88 61 30 17 15 15 15 9 8 12 14 19 21 13 17 1
31 76 101 111 151 158 262 271 230 220 218 212 219 218 210 197 202 197 192 182 168 132 131 135 132 127 122 119 113 111 100 96 94 97 87 10 12 4 355 355 12 8 2 5 16 10 3 5 357
220 188 154 151 230 199 213 270 275 221 218 193 205 211 207 199 194 183 174 157 139 132 131 132 128 131 139 123 112 110 107 98 92 82 358 18 3 348 357 18 19 357 352 358 2 350 346 343 342